Powrót do katalogu

RESOURCESAT 2A

AktywnyNaukaSSO
NORAD 41877·PAYLOAD·🇮🇳 India

Wystrzelony Dec 7, 2016 z Satish Dhawan Space Centre

Loading…

Następne Przeloty (najbliższe 24 godziny)

TLE

ŚwieżeSource: Space-Track

Epoka: Sep 14, 2026, 14:19 UTC

1 41877U 16074A   26257.59714451  .00000199  00000-0  11067-3 0  9990
2 41877  98.7463 330.3395 0002423 154.0903 206.0396 14.21613474507006

Śledź RESOURCESAT 2A w czasie rzeczywistym z AllMySat

Download on the App Store